[[{"header":{"parameterUnit":"m.s-1","parameterCategory":1,"la1":30.2991,"la2":30.254,"lo1":-89.0895,"lo2":-89.0444,"dy":0.0017,"dx":0.0017,"nx":28,"ny":28,"refTime":"2024-06-11T09:00:00:Z","depth":0,"parameterNumber":2,"parameterNumberName":"U-component_of_WINDS"},"data":[0,0,0,0,0,0,0,0,0,0,0,0,0,0,0,0,0,0,0,0,0,0,0,0,0,0,0,0,0,0,0,0,0,0,0,0,0,0,0,0,0,0,0,0,0,0,0,0,0,0,0,0,0,0,0,0,0,0,-2.9124,-2.9123,0,-2.9067,-2.9066,-2.9066,-2.8967,-2.8966,-2.8964,-2.8962,-2.8907,-2.8907,-2.8907,0,0,0,0,0,0,0,0,0,0,0,0,0,-2.915,-2.915,-2.9124,-2.9123,-2.9122,-2.9067,-2.9066,-2.9065,-2.8968,-2.8966,-2.8963,-2.8961,-2.8907,-2.8907,-2.8907,0,0,0,0,0,0,0,0,0,0,0,0,0,-2.9121,-2.915,-2.9124,-2.9067,-2.9061,-2.9067,-2.9066,-2.9065,-2.8968,-2.8965,-2.8963,-2.896,-2.8907,-2.8907,-2.8908,-2.8966,0,0,-2.8909,-2.8909,0,0,0,0,0,0,0,0,-2.9123,-2.912,-2.9076,-2.9071,-2.9064,-2.9021,-2.9055,-2.9032,-2.8969,-2.9004,-2.8962,-2.8959,-2.8947,-2.8944,-2.894,-2.8963,-2.8961,-2.8909,-2.8909,-2.8909,-2.8909,0,0,0,0,0,0,0,-2.9125,-2.9122,-2.9101,-2.9075,-2.9068,-2.9045,-2.9038,-2.9051,-2.8992,-2.9,-2.8993,-2.8988,-2.8944,-2.894,-2.8938,-2.896,-2.8909,-2.8909,-2.8909,-2.8909,-2.903,-2.9033,0,0,0,0,0,0,-2.9135,-2.9124,-2.9103,-2.9099,-2.9087,-2.9047,-2.9039,-2.9038,-2.8991,-2.8982,-2.899,-2.8983,-2.894,-2.8938,-2.8936,-2.9002,-2.8909,-2.891,-2.891,-2.9027,-2.903,-2.9034,0,0,0,0,0,0,-2.9136,-2.9134,-2.9105,-2.911,-2.9104,-2.9049,-2.9049,-2.9038,-2.9034,-2.8984,-2.8973,-2.8997,-2.8938,-2.8935,-2.8959,-2.8999,-2.891,-2.891,-2.9023,-2.9028,-2.9032,-2.9135,0,0,0,0,0,0,-2.9137,-2.9135,-2.9155,-2.9111,-2.9105,-2.9129,-2.9052,-2.9039,-2.9035,-2.9025,-2.8987,-2.8978,-2.8936,-2.8959,-2.896,-2.8997,-2.891,-2.902,-2.9025,-2.9031,-2.9127,-2.9142,-2.9154,0,0,0,0,0,-2.9138,-2.9187,-2.9157,-2.9155,-2.9129,-2.9131,-2.9128,-2.9078,-2.9038,-2.9059,-2.9027,-2.8979,-2.8994,-2.8962,-2.8962,-2.9001,-2.9017,-2.9024,-2.903,-2.9121,-2.9139,-2.9154,0,0,0,0,0,0,-2.9238,-2.918,-2.9146,-2.9182,-2.9162,-2.9115,-2.914,-2.9098,-2.909,-2.9081,-2.902,-2.9012,-2.9045,-2.9025,-2.8991,-2.9055,-2.8998,-2.9005,-2.9067,-2.9084,-2.9097,-2.9102,-2.8911,0,0,0,0,0,-2.9264,-2.927,-2.9219,-2.9255,-2.9247,-2.9196,-2.9195,-2.9157,-2.9135,-2.9127,-2.9096,-2.9077,-2.9078,-2.9079,-2.9077,-2.9124,-2.9115,-2.915,-2.9164,-2.9175,-2.9182,-2.9207,-2.9223,-2.9055,-2.9055,-2.9055,0,0,-2.9318,-2.9287,-2.9294,-2.9274,-2.9255,-2.9264,-2.9189,-2.9201,-2.9207,-2.9129,-2.915,-2.9127,-2.9102,-2.9138,-2.9153,-2.9123,-2.9227,-2.9184,-2.9193,-2.9194,-2.9216,-2.9232,-2.9246,-2.906,-2.9059,-2.9058,0,0,-2.9421,-2.9397,-2.9426,-2.9408,-2.9379,-2.9345,-2.9352,-2.9311,-2.9293,-2.9312,-2.9254,-2.9261,-2.9263,-2.9248,-2.9241,-2.934,-2.9296,-2.934,-2.9411,-2.9437,-2.945,-2.9461,-2.9499,-2.9512,-2.9347,-2.9348,-2.9348,0,-2.9492,-2.9502,-2.9446,-2.9462,-2.9456,-2.9384,-2.9413,-2.9399,-2.9372,-2.937,-2.9336,-2.9338,-2.9315,-2.9348,-2.9373,-2.9368,-2.9376,-2.9345,-2.9452,-2.9463,-2.9473,-2.9508,-2.9522,-2.9353,-2.9353,-2.9352,-2.9352,0,-2.9591,-2.9599,-2.9626,-2.9601,-2.9597,-2.962,-2.9569,-2.9572,-2.9536,-2.9505,-2.9528,-2.9499,-2.949,-2.9495,-2.9459,-2.9523,-2.9506,-2.9463,-2.9404,-2.9496,-2.9528,-2.954,-2.9362,-2.936,-2.9358,-2.9357,0,0,-2.9756,-2.97,-2.9711,-2.9699,-2.9663,-2.9668,-2.9689,-2.9679,-2.9684,-2.9668,-2.9685,-2.9688,-2.9649,-2.9641,-2.9603,-2.9625,-2.9708,-2.958,-2.9579,-2.9606,-2.9779,-2.9812,-2.9828,-2.9678,-2.968,-2.9682,-2.9781,0,-2.9852,-2.9882,-2.9833,-2.9876,-2.9883,-2.9816,-2.9834,-2.9814,-2.9787,-2.979,-2.976,-2.9764,-2.9711,-2.9706,-2.9725,-2.9694,-2.9742,-2.9686,-2.9695,-2.9696,-2.9705,-2.9844,-2.9879,-2.9974,-2.9793,-2.9795,-2.9797,0,-2.9969,-2.9958,-3.0001,-2.9964,-2.9965,-2.9982,-2.997,-2.9974,-2.9951,-2.9929,-2.9921,-2.9876,-2.9895,-2.9838,-2.9864,-2.9827,-2.9827,-2.9813,-2.9816,-2.9816,-2.9753,-2.985,-3.0003,-3.0018,-2.9815,-2.9814,-2.9812,0,-3.0087,-3.0083,-3.0109,-3.0101,-3.0057,-3.0071,-3.0053,-3.0028,-3.0026,-3.0016,-3.0015,-3.0007,-3.0004,-3.0,-2.9956,-2.9918,-2.9988,-2.9926,-2.9972,-2.9974,-2.9991,-2.9991,-3.0149,-2.999,-2.9989,-2.9989,-2.9989,0,-3.0201,-3.023,-3.0161,-3.0177,-3.0209,-3.0153,-3.0186,-3.0162,-3.014,-3.0151,-3.0092,-3.0105,-3.0044,-3.005,-3.0016,-3.0044,-3.0042,-3.0027,-3.0017,-3.0033,-3.0035,-3.0034,-3.0027,-2.9993,-2.9992,-2.9991,-2.9991,0,-3.0338,-3.0293,-3.0317,-3.0273,-3.0263,-3.0289,-3.0252,-3.0266,-3.0235,-3.025,-3.0251,-3.0202,-3.0206,-3.0161,-3.0157,-3.0133,-3.0179,-3.0157,-3.0186,-3.018,-3.023,-3.0226,-3.0393,-3.0413,-3.024,-3.0241,-3.0243,0,-3.0414,-3.0435,-3.0395,-3.0398,-3.0383,-3.0389,-3.0386,-3.0332,-3.0333,-3.0309,-3.0327,-3.0326,-3.0323,-3.0333,-3.0298,-3.0295,-3.0274,-3.0333,-3.0273,-3.0289,-3.0277,-3.0277,-3.028,-3.0346,-3.0348,-3.035,-3.0351,0,-3.0555,-3.0532,-3.0531,-3.0522,-3.0521,-3.0512,-3.0499,-3.0505,-3.0447,-3.045,-3.0454,-3.0451,-3.0447,-3.0448,-3.0438,-3.0422,-3.0378,-3.037,-3.0381,-3.0398,-3.0415,-3.0408,-3.0222,-3.0367,-3.0365,-3.0364,-3.0363,-3.0362,-3.0665,-3.0682,-3.0656,-3.0657,-3.0642,-3.0631,-3.0643,-3.0613,-3.0614,-3.0606,-3.0574,-3.0584,-3.0562,-3.0545,-3.0532,-3.054,-3.0512,-3.0527,-3.0531,-3.0537,-3.0547,-3.0412,-3.0538,-3.0538,-3.0537,-3.0537,-3.0536,0,-3.0805,-3.0785,-3.0787,-3.077,-3.0772,-3.0729,-3.0713,-3.0717,-3.0726,-3.0709,-3.0707,-3.0712,-3.0713,-3.0679,-3.0676,-3.0689,-3.0669,-3.069,-3.069,-3.0687,-3.0571,-3.0563,-3.0707,-3.0707,-3.0707,-3.0706,-3.0706,-3.0706,-3.0878,-3.0904,-3.0878,-3.0896,-3.0876,-3.0885,-3.088,-3.0871,-3.0857,-3.0865,-3.0865,-3.0842,-3.0819,-3.0814,-3.0814,-3.0803,-3.0806,-3.0835,-3.0819,-3.0711,-3.0695,-3.0679,-3.0671,-3.0835,-3.0836,-3.0934,-3.0935,-3.0936]},{"header":{"parameterUnit":"m.s-1","parameterCategory":1,"la1":30.2991,"la2":30.254,"lo1":-89.0895,"lo2":-89.0444,"dy":0.0017,"dx":0.0017,"nx":28,"ny":28,"refTime":"2024-06-11T09:00:00:Z","depth":0,"parameterNumber":3,"parameterNumberName":"V-component_of_WINDS"},"data":[0,0,0,0,0,0,0,0,0,0,0,0,0,0,0,0,0,0,0,0,0,0,0,0,0,0,0,0,0,0,0,0,0,0,0,0,0,0,0,0,0,0,0,0,0,0,0,0,0,0,0,0,0,0,0,0,0,0,-0.4694,-0.4694,0,-0.4735,-0.4736,-0.4736,-0.4744,-0.4744,-0.4744,-0.4743,-0.4786,-0.4788,-0.4789,0,0,0,0,0,0,0,0,0,0,0,0,0,-0.4621,-0.4622,-0.4694,-0.4694,-0.4695,-0.4735,-0.4736,-0.4736,-0.4744,-0.4744,-0.4744,-0.4743,-0.4786,-0.4788,-0.4789,0,0,0,0,0,0,0,0,0,0,0,0,0,-0.4657,-0.4623,-0.4694,-0.4704,-0.4705,-0.4735,-0.4736,-0.4737,-0.4744,-0.4744,-0.4743,-0.4743,-0.4785,-0.4787,-0.479,-0.4813,0,0,-0.4796,-0.4797,0,0,0,0,0,0,0,0,-0.4655,-0.4659,-0.4702,-0.4703,-0.4704,-0.4734,-0.4726,-0.4762,-0.4745,-0.4729,-0.4743,-0.4743,-0.4769,-0.4773,-0.4782,-0.4815,-0.4817,-0.4796,-0.4798,-0.4799,-0.4799,0,0,0,0,0,0,0,-0.4652,-0.4657,-0.471,-0.4702,-0.4704,-0.4706,-0.4711,-0.4733,-0.4752,-0.4731,-0.4731,-0.4736,-0.477,-0.478,-0.4783,-0.4818,-0.4796,-0.4798,-0.48,-0.4801,-0.4873,-0.4874,0,0,0,0,0,0,-0.4648,-0.4655,-0.4709,-0.4711,-0.4678,-0.4708,-0.4713,-0.4725,-0.4752,-0.4755,-0.4737,-0.4736,-0.4776,-0.478,-0.4784,-0.4815,-0.4799,-0.4801,-0.4802,-0.4872,-0.4873,-0.4874,0,0,0,0,0,0,-0.4646,-0.4652,-0.4707,-0.4684,-0.4691,-0.4709,-0.4723,-0.4726,-0.4736,-0.4756,-0.4759,-0.4743,-0.4776,-0.4781,-0.4806,-0.4816,-0.4802,-0.4804,-0.4872,-0.4873,-0.4873,-0.4875,0,0,0,0,0,0,-0.4644,-0.4652,-0.4661,-0.4684,-0.4692,-0.4728,-0.4724,-0.4727,-0.474,-0.474,-0.4763,-0.4766,-0.4776,-0.4803,-0.4808,-0.4819,-0.4805,-0.4871,-0.4872,-0.4873,-0.4874,-0.4876,-0.4877,0,0,0,0,0,-0.4641,-0.4659,-0.4661,-0.4668,-0.4704,-0.4729,-0.4733,-0.4744,-0.474,-0.475,-0.4763,-0.4765,-0.4814,-0.4805,-0.4811,-0.4823,-0.487,-0.4872,-0.4873,-0.4873,-0.4875,-0.4877,0,0,0,0,0,0,-0.4637,-0.4663,-0.4665,-0.4691,-0.4708,-0.473,-0.4742,-0.4746,-0.4764,-0.4764,-0.4776,-0.4781,-0.4806,-0.4816,-0.4806,-0.4847,-0.4842,-0.4845,-0.484,-0.4842,-0.4843,-0.4841,-0.4807,0,0,0,0,0,-0.4639,-0.4658,-0.4679,-0.4699,-0.4708,-0.4723,-0.4735,-0.4742,-0.4759,-0.4767,-0.4781,-0.4798,-0.4818,-0.483,-0.4849,-0.4875,-0.4881,-0.4886,-0.4887,-0.4889,-0.4891,-0.4907,-0.491,-0.4878,-0.4878,-0.4878,0,0,-0.4644,-0.466,-0.4671,-0.4699,-0.4713,-0.4732,-0.4729,-0.4749,-0.4763,-0.477,-0.4794,-0.4805,-0.4825,-0.4851,-0.4863,-0.4861,-0.4901,-0.489,-0.4891,-0.4893,-0.4909,-0.4912,-0.4914,-0.4879,-0.4879,-0.4879,0,0,-0.4663,-0.4676,-0.4695,-0.4709,-0.473,-0.474,-0.4745,-0.4767,-0.4775,-0.4799,-0.4805,-0.4821,-0.4854,-0.4868,-0.488,-0.4903,-0.4907,-0.4909,-0.4918,-0.4933,-0.4936,-0.4938,-0.4948,-0.4951,-0.4911,-0.4911,-0.4911,0,-0.4666,-0.4694,-0.4705,-0.4725,-0.4737,-0.4743,-0.4764,-0.4776,-0.4802,-0.4811,-0.4808,-0.4849,-0.4863,-0.4893,-0.4898,-0.4907,-0.4913,-0.4907,-0.4934,-0.4937,-0.4939,-0.4949,-0.4952,-0.4911,-0.4911,-0.4911,-0.4911,0,-0.4698,-0.4718,-0.4731,-0.4756,-0.477,-0.479,-0.4803,-0.4816,-0.4821,-0.4832,-0.4858,-0.4874,-0.4897,-0.4904,-0.4909,-0.4935,-0.4933,-0.4932,-0.4927,-0.4942,-0.4951,-0.4955,-0.4912,-0.4912,-0.4912,-0.4912,0,0,-0.4716,-0.4747,-0.4752,-0.4764,-0.4787,-0.4802,-0.4822,-0.4844,-0.4856,-0.4873,-0.4891,-0.4918,-0.4917,-0.493,-0.4937,-0.495,-0.4969,-0.4948,-0.4948,-0.4952,-0.5,-0.5002,-0.5006,-0.4971,-0.4972,-0.4972,-0.4999,0,-0.4739,-0.4775,-0.4785,-0.4816,-0.4835,-0.4841,-0.4858,-0.4875,-0.4885,-0.4902,-0.4914,-0.4933,-0.493,-0.4938,-0.4951,-0.4964,-0.4979,-0.4962,-0.4989,-0.499,-0.4985,-0.501,-0.5012,-0.5037,-0.5002,-0.5003,-0.5003,0,-0.477,-0.4789,-0.4822,-0.4843,-0.4851,-0.4867,-0.4889,-0.4905,-0.4923,-0.493,-0.4944,-0.495,-0.4972,-0.4964,-0.4994,-0.4982,-0.4993,-0.5001,-0.5002,-0.5007,-0.4999,-0.5017,-0.5044,-0.5049,-0.5009,-0.5008,-0.5008,0,-0.4782,-0.4815,-0.4839,-0.4849,-0.4874,-0.4885,-0.4896,-0.4914,-0.4927,-0.4945,-0.4954,-0.4974,-0.4986,-0.5002,-0.5013,-0.5006,-0.5043,-0.5036,-0.505,-0.505,-0.5059,-0.5058,-0.509,-0.5063,-0.5063,-0.5063,-0.5063,0,-0.4807,-0.4828,-0.4845,-0.486,-0.4884,-0.4894,-0.4917,-0.4928,-0.4944,-0.4962,-0.4967,-0.4983,-0.4996,-0.5014,-0.5023,-0.5047,-0.5052,-0.5059,-0.5061,-0.5059,-0.5059,-0.5068,-0.5068,-0.5064,-0.5063,-0.5063,-0.5063,0,-0.4825,-0.4838,-0.4865,-0.4887,-0.4892,-0.4909,-0.4927,-0.4942,-0.4952,-0.4975,-0.498,-0.4996,-0.5018,-0.503,-0.5057,-0.5063,-0.5091,-0.5091,-0.5085,-0.5086,-0.51,-0.51,-0.5141,-0.5148,-0.5114,-0.5114,-0.5114,0,-0.4842,-0.4858,-0.4881,-0.4893,-0.4905,-0.4924,-0.4937,-0.4948,-0.4962,-0.4984,-0.4997,-0.5019,-0.5037,-0.5071,-0.5086,-0.5106,-0.5109,-0.5122,-0.5112,-0.511,-0.5111,-0.5111,-0.5113,-0.5124,-0.5124,-0.5125,-0.5125,0,-0.487,-0.4875,-0.4894,-0.4915,-0.4931,-0.4948,-0.4965,-0.4975,-0.4989,-0.5003,-0.5026,-0.504,-0.5068,-0.509,-0.5112,-0.5123,-0.5127,-0.5127,-0.5132,-0.5132,-0.5128,-0.5132,-0.5092,-0.5127,-0.5127,-0.5127,-0.5126,-0.5126,-0.4888,-0.4903,-0.4922,-0.4944,-0.4957,-0.4973,-0.4989,-0.5001,-0.502,-0.5044,-0.5049,-0.5073,-0.5091,-0.5121,-0.5133,-0.5152,-0.5149,-0.5156,-0.5158,-0.516,-0.5161,-0.5123,-0.5155,-0.5155,-0.5155,-0.5155,-0.5155,0,-0.4918,-0.4931,-0.495,-0.4974,-0.4991,-0.4992,-0.5011,-0.5025,-0.5046,-0.5062,-0.5081,-0.5107,-0.5128,-0.5144,-0.5165,-0.5178,-0.518,-0.5183,-0.5184,-0.5186,-0.5161,-0.5156,-0.5181,-0.5181,-0.5181,-0.5181,-0.5181,-0.5181,-0.4936,-0.4962,-0.4969,-0.5002,-0.5014,-0.5038,-0.5049,-0.5064,-0.5077,-0.5106,-0.5124,-0.5134,-0.5151,-0.5174,-0.5194,-0.5198,-0.5206,-0.521,-0.5214,-0.5191,-0.5188,-0.5185,-0.5181,-0.5211,-0.5211,-0.5239,-0.5239,-0.5239]}]]